Overview Statistics Trail Chart Weather Telemetry Raw packets
 

This is the latest recevied weather packets stored in our database for station/object KD7AWQ. If no packets are shown the sender has not sent any weather packets the latest 10 day(s).

<< 48 49 50 51 52 53 54 >>
Time Temp. Humidity Pressure Rain* Wind** Luminosity Snow
1788096912 23.89° C 52% 1190 hPa 0 mm - 35 W/m² -
1788096607 23.89° C 52% 1189.7 hPa 0 mm - 30 W/m² -
1788096303 23.89° C 52% 1189.6 hPa 0 mm - 29 W/m² -
1788096008 23.89° C 53% 1189.5 hPa 0 mm - 25 W/m² -
1788095701 23.89° C 53% 1189.5 hPa 0 mm - 30 W/m² -
1788095396 23.33° C 55% 1189.3 hPa 0 mm - 27 W/m² -
1788095092 23.33° C 56% 1189 hPa 0 mm - 15 W/m² -
1788094790 23.33° C 56% 1189.1 hPa 0 mm - 10 W/m² -
1788094486 23.33° C 57% 1188.8 hPa 0 mm - 7 W/m² -
1788094184 23.33° C 56% 1188.7 hPa 0 mm - 3 W/m² -
1788093879 23.33° C 56% 1188.8 hPa 0 mm - 1 W/m² -
1788093576 23.33° C 56% 1188.7 hPa 0 mm - 0 W/m² -
1788093272 23.33° C 55% 1188.8 hPa 0 mm - 0 W/m² -
1788092970 23.33° C 55% 1188.6 hPa 0 mm - 0 W/m² -
1788092669 23.33° C 55% 1188.6 hPa 0 mm - 0 W/m² -
1788092364 23.89° C 53% 1188.6 hPa 0 mm - 0 W/m² -
1788092060 23.89° C 53% 1188.8 hPa 0 mm - 0 W/m² -
1788091754 23.89° C 52% 1188.4 hPa 0 mm - 0 W/m² -
1788091450 23.89° C 52% 1188.8 hPa 0 mm - 0 W/m² -
1788091146 24.44° C 50% 1188.8 hPa 0 mm - 0 W/m² -
1788090842 23.89° C 49% 1188.7 hPa 0 mm - 0 W/m² -
1788090538 23.89° C 49% 1188.9 hPa 0 mm - 0 W/m² -
1788090234 24.44° C 47% 1188.4 hPa 0 mm - 0 W/m² -
1788089929 25° C 43% 1188.4 hPa 0 mm - 0 W/m² -
1788089629 24.44° C 42% 1188.4 hPa 0 mm - 0 W/m² -

* Rain latest hour (hover to see other rain measurements)
** Current wind speed in m/s (hover to see current wind gust speed)